This is the latest recevied weather packets stored in our database for station/object KN6ETB-1. If no packets are shown the sender has not sent any weather packets the latest 10 day(s).
| Time | Temp. | Humidity | Pressure | Rain* | Wind** | Luminosity | Snow |
|---|---|---|---|---|---|---|---|
| 1777304236 | 12.78° C | 85% | 1014.2 hPa | 0 mm | - | 124 W/m² | - |
| 1777303934 | 12.22° C | 85% | 1014.1 hPa | 0 mm | - | 112 W/m² | - |
| 1777303630 | 12.22° C | 85% | 1013.9 hPa | 0 mm | - | 107 W/m² | - |
| 1777303328 | 12.22° C | 84% | 1013.8 hPa | 0 mm | - | 109 W/m² | - |
| 1777303025 | 12.22° C | 84% | 1013.9 hPa | 0 mm | - | 97 W/m² | - |
| 1777302723 | 12.22° C | 84% | 1013.9 hPa | 0 mm | - | 100 W/m² | - |
| 1777302421 | 12.22° C | 84% | 1014 hPa | 0 mm | - | 97 W/m² | - |
| 1777302118 | 12.22° C | 85% | 1013.8 hPa | 0 mm | - | 101 W/m² | - |
| 1777301815 | 11.67° C | 86% | 1013.9 hPa | 0 mm | - | 94 W/m² | - |
| 1777301513 | 11.67° C | 86% | 1013.7 hPa | 0 mm | - | 87 W/m² | - |
| 1777301210 | 11.67° C | 87% | 1013.7 hPa | 0 mm | - | 85 W/m² | - |
| 1777300906 | 11.67° C | 87% | 1013.9 hPa | 0 mm | - | 78 W/m² | - |
| 1777300604 | 11.67° C | 88% | 1013.7 hPa | 0 mm | - | 86 W/m² | - |
| 1777300302 | 11.67° C | 88% | 1013.7 hPa | 0 mm | - | 84 W/m² | - |
| 1777299999 | 11.11° C | 89% | 1013.6 hPa | 0 mm | - | 74 W/m² | - |
| 1777299695 | 11.11° C | 89% | 1013.5 hPa | 0 mm | - | 66 W/m² | - |
| 1777299393 | 10.56° C | 90% | 1013.5 hPa | 0 mm | - | 42 W/m² | - |
| 1777299090 | 10.56° C | 90% | 1013.6 hPa | 0 mm | - | 39 W/m² | - |
| 1777298788 | 10.56° C | 90% | 1013.6 hPa | 0 mm | - | 27 W/m² | - |
| 1777298484 | 10.56° C | 90% | 1013.4 hPa | 0 mm | - | 21 W/m² | - |
| 1777298180 | 10.56° C | 90% | 1013.5 hPa | 0 mm | - | 16 W/m² | - |
| 1777297875 | 10° C | 90% | 1012.9 hPa | 0 mm | - | 13 W/m² | - |
| 1777297573 | 10° C | 90% | 1013.2 hPa | 0 mm | - | 11 W/m² | - |
| 1777297269 | 10° C | 90% | 1013 hPa | 0 mm | - | 10 W/m² | - |
| 1777296967 | 10° C | 90% | 1013.2 hPa | 0 mm | - | 8 W/m² | - |
* Rain latest hour (hover to see other rain measurements)
** Current wind speed in m/s (hover to see current wind gust speed)